Wetbulb
69.13 68.39 63.51 61.47 54.87 54.51 52.76 53.80 57.98 56.76 59.65 64.23 64.66 61.29 58.39 61.72 59.74 53.06 69.34 71.38 71.77 71.05 71.70 73.41 75.13 74.23 73.82 73.77 73.68 73.61 73.42 72.93 72.41 72.20 72.41 73.42 74.20 73.98 74.19 75.03 75.23 74.64 73.62 73.87 74.12 74.11 73.70 73.34 73.45
60.75 61.72 60.23 57.19 52.11 48.40 50.82 54.64 55.23 59.23 63.86 64.80 63.43 60.92 58.91 58.36 66.99 67.70 68.18 71.41 71.33 70.78 70.78 72.97 75.56 75.02 74.31 74.24 74.32 74.50 74.25 74.18 73.91 74.10 72.20 72.49 73.57 73.74 73.90 74.54 74.14 73.76 73.39 73.49 73.56 73.18 72.63 72.20 72.20
58.95 60.00 56.28 53.74 50.05 47.98 50.87 56.45 55.66 62.65 66.08 64.78 63.21 65.71 61.50 62.22 67.71 67.47 70.52 71.06 70.08 69.46 71.03 73.04 75.38 74.97 74.25 74.17 73.88 73.45 72.89 72.45 72.32 73.10 73.98 72.52 72.89 74.01 74.40 74.77 74.53 73.31 73.11 72.94 73.08 72.62 72.51 72.68 72.53
58.03 57.14 57.10 51.83 48.91 53.39 57.14 57.67 60.97 62.24 63.95 65.83 65.33 62.11 65.58 65.84 66.46 70.42 71.17 70.08 68.52 68.64 70.08 75.16 75.84 75.13 74.36 73.79 73.47 72.99 72.73 72.38 72.31 72.12 72.18 72.87 72.36 72.88 74.01 74.40 74.54 72.97 72.48 72.71 72.74 72.23 72.13 72.33 72.39
57.65 56.36 51.41 49.61 50.73 55.64 59.77 60.63 61.79 62.36 63.63 64.05 64.94 61.69 60.38 67.63 70.80 70.93 69.46 68.95 67.72 68.20 70.93 73.48 75.63 75.03 74.32 73.66 73.32 72.87 72.54 72.27 72.29 72.44 72.28 71.93 72.45 72.54 73.23 74.53 73.32 72.64 72.27 72.47 72.36 71.59 71.87 72.66 72.82
53.27 54.16 49.94 50.17 52.61 58.59 58.85 60.60 60.81 60.61 62.79 63.92 63.35 61.85 59.95 68.84 68.55 68.84 68.81 67.73 68.75 69.46 70.62 73.08 75.08 75.31 74.68 73.72 73.30 72.77 72.60 72.35 71.97 72.28 72.47 72.22 72.05 72.45 72.70 73.37 72.93 72.56 72.20 71.59 71.52 71.54 72.16 72.29 72.66
51.63 48.98 50.12 51.07 54.21 55.83 58.43 59.76 59.73 61.47 61.74 62.76 65.24 59.23 59.88 64.86 67.76 68.42 68.29 67.94 68.11 70.06 70.24 71.16 72.11 73.17 74.08 73.81 73.34 72.61 72.51 72.72 72.49 72.69 72.52 72.21 72.25 72.20 72.53 73.14 72.75 72.26 72.14 71.58 71.35 71.84 72.42 72.55 72.58
50.55 51.96 51.59 52.64 52.50 53.52 60.04 58.61 60.82 62.20 62.75 66.90 66.30 59.55 57.08 61.48 66.34 67.53 67.80 66.33 66.83 68.97 69.83 69.41 70.67 71.27 71.18 71.08 73.26 72.71 72.39 72.69 72.79 72.17 72.12 72.32 72.16 72.28 72.35 72.67 72.99 72.25 72.15 71.93 71.83 72.03 72.47 72.68 72.71
51.48 50.07 49.37 53.82 54.99 56.02 58.78 55.07 60.21 64.53 63.88 65.35 66.33 64.18 62.97 63.94 65.15 66.54 64.38 64.15 65.45 67.23 69.36 68.80 69.62 69.82 70.13 70.42 71.69 72.92 72.59 72.64 72.67 72.05 72.14 71.89 68.33 68.96 70.45 71.43 71.92 72.41 72.31 72.56 72.61 72.46 72.44 72.71 73.01
48.34 47.64 52.83 58.11 58.31 56.70 57.30 55.83 59.74 63.07 62.98 62.43 63.49 65.10 64.82 63.20 64.22 64.58 62.60 62.48 63.12 64.96 67.08 69.08 69.93 69.63 69.75 71.75 70.11 69.39 69.68 69.05 69.61 69.73 69.01 67.98 66.77 65.68 68.85 70.06 72.64 73.06 72.99 72.96 72.96 72.91 72.93 72.66 67.91
46.81 47.02 54.23 58.42 59.92 59.90 57.79 53.98 62.10 61.90 59.08 62.25 61.27 62.77 63.31 62.14 60.42 63.83 62.90 63.26 63.10 64.57 66.18 68.45 69.32 69.80 69.13 69.95 69.74 69.01 68.33 68.04 67.77 67.49 66.98 66.74 66.88 66.14 67.38 67.27 69.22 68.59 70.78 67.81 69.00 68.66 68.62 67.18 65.68
44.63 49.46 53.56 58.05 58.29 56.52 53.57 60.21 61.74 61.42 62.04 65.04 64.61 64.15 63.35 61.79 59.70 61.23 62.28 62.98 63.15 63.69 65.08 67.40 68.37 68.91 68.17 68.71 68.93 67.74 67.59 67.30 66.47 66.43 66.48 65.68 65.01 66.09 65.78 65.88 65.01 65.03 64.66 65.27 64.40 63.72 63.87 63.85 64.28
45.63 48.11 50.64 56.24 56.50 54.71 55.77 58.55 61.74 60.49 64.22 65.30 64.87 64.10 63.04 62.08 60.60 60.33 61.83 62.97 63.43 63.23 64.30 66.07 66.68 65.55 67.40 67.58 66.16 65.74 66.55 67.17 66.94 66.23 67.18 66.64 66.43 66.02 64.18 64.56 62.94 63.19 63.39 63.23 62.32 62.83 63.05 62.85 63.26
47.49 47.36 48.07 48.11 52.57 54.36 54.31 61.12 61.28 62.09 64.45 63.55 63.61 63.27 63.77 63.16 62.69 60.98 59.00 59.59 61.59 63.35 64.11 65.52 64.34 66.41 67.66 67.21 64.52 64.69 65.18 66.63 66.38 66.58 67.54 68.03 67.18 66.07 65.24 65.94 65.07 64.14 65.16 65.46 63.64 63.43 63.73 64.19 64.35
47.65 45.92 47.59 48.64 48.59 52.83 56.20 56.57 59.12 63.63 64.31 62.87 63.05 63.57 64.13 63.96 63.18 62.51 61.12 60.02 60.42 62.69 65.11 64.45 65.16 65.64 66.55 65.76 66.08 65.41 65.29 66.50 65.72 67.37 67.87 68.08 67.67 68.13 68.83 67.32 66.92 66.44 66.52 66.53 65.93 65.82 65.26 65.30 65.52
44.94 43.89 41.91 46.77 48.89 51.22 53.62 47.90 59.48 64.12 63.16 62.31 62.97 63.48 63.37 63.04 62.72 62.79 61.90 61.03 60.32 62.42 64.37 64.81 67.91 65.65 65.05 64.71 66.44 65.98 65.67 64.93 64.75 64.40 65.45 68.84 68.06 67.45 66.96 66.96 66.98 67.60 67.40 67.68 68.06 66.84 65.50 65.29 64.92
41.35 38.58 40.14 44.65 47.60 48.48 50.59 50.90 60.26 62.75 62.80 62.06 62.71 63.36 63.50 63.00 62.04 62.34 62.97 61.47 61.32 62.16 63.50 63.02 64.63 64.64 65.20 64.81 65.62 65.88 65.69 65.68 66.58 65.34 65.36 66.34 68.62 68.52 66.39 67.49 67.68 67.45 67.67 68.61 67.60 67.09 65.95 65.24 65.36
39.12 38.29 39.84 42.65 47.11 46.93 46.46 53.10 60.30 61.78 62.01 61.49 61.97 62.45 62.67 62.75 61.89 62.55 63.06 61.84 61.60 61.36 62.76 62.91 64.10 64.24 64.71 65.29 65.26 65.55 65.79 65.59 65.55 65.28 65.36 65.92 67.40 69.63 68.44 67.06 67.17 67.97 67.61 67.42 67.22 67.30 67.32 66.69 67.20
43.63 41.24 41.78 44.50 47.46 46.23 46.68 53.87 57.32 61.08 61.09 60.41 60.58 60.93 61.48 62.02 63.07 62.52 62.93 62.15 61.83 60.97 60.99 60.31 62.33 63.54 64.59 64.87 64.78 63.88 63.54 64.35 64.71 65.17 65.82 65.85 65.73 68.11 67.82 68.66 67.61 67.16 66.71 66.65 66.70 66.35 66.38 66.09 67.03
44.17 42.86 43.37 46.10 48.47 46.17 46.12 51.87 56.04 54.78 59.40 60.82 60.78 60.86 61.16 60.65 61.60 61.57 61.03 61.15 62.59 61.84 61.25 61.07 61.34 64.54 65.34 65.43 65.14 65.04 64.50 64.74 65.21 65.46 66.10 66.49 66.42 66.37 67.82 67.29 68.03 67.95 68.01 67.63 67.81 66.51 65.67 65.88 66.69
43.26 42.02 44.08 43.53 47.26 47.89 47.05 46.01 52.65 57.63 59.60 61.84 62.16 62.39 61.93 61.61 61.59 60.56 60.20 60.68 61.86 62.54 62.62 62.67 62.71 63.77 66.51 65.83 65.73 65.77 66.53 67.08 66.42 66.33 67.05 67.82 68.18 67.36 66.39 67.87 68.33 68.15 68.15 67.54 68.39 67.45 67.20 65.78 65.91
39.79 45.89 47.11 46.77 43.63 40.55 46.74 40.26 46.80 54.90 57.48 59.84 59.68 60.71 61.32 61.75 61.65 61.90 61.91 62.84 61.98 64.39 64.49 63.77 64.28 65.00 66.18 67.06 66.62 66.04 65.27 64.93 66.58 68.81 68.94 69.38 70.04 69.95 68.18 67.86 68.50 69.25 69.84 68.41 68.13 67.14 64.93 63.90 62.27
44.29 48.20 46.00 46.51 43.02 39.82 42.07 41.18 46.41 52.80 54.03 55.80 58.25 62.59 63.86 63.80 65.84 66.33 66.97 67.45 68.67 67.24 67.98 69.66 69.90 70.59 71.54 68.59 68.52 68.56 67.79 69.16 71.04 70.06 69.12 68.94 69.56 69.71 70.10 69.85 69.38 68.72 68.22 67.79 66.89 65.06 63.45 64.28 63.96
49.05 46.36 44.63 42.26 40.97 35.37 39.91 41.48 41.39 49.02 54.04 55.40 59.27 63.80 64.63 65.44 65.95 66.46 67.74 68.26 67.97 68.76 68.76 68.70 68.60 68.82 69.10 69.15 69.98 69.30 69.38 69.01 68.76 68.54 67.77 67.92 67.86 66.98 66.74 66.67 66.09 66.08 65.60 64.31 62.91 62.47 60.79 58.79 58.59
45.80 40.92 36.49 36.04 35.24 35.07 41.71 40.81 43.70 46.55 56.66 58.78 60.74 62.54 63.54 64.57 64.74 64.92 65.25 66.07 66.53 67.18 67.91 68.07 67.62 66.98 68.08 68.42 68.51 68.71 68.15 66.96 65.76 65.64 66.31 66.27 65.78 64.60 64.13 64.19 63.27 62.32 61.33 60.32 58.73 57.58 56.62 55.75 54.39
42.27 42.28 37.78 33.07 34.65 37.77 43.79 39.24 42.47 54.80 59.42 62.41 62.77 62.68 63.30 63.21 63.71 64.00 64.31 64.64 65.38 66.05 66.85 66.94 66.34 65.95 66.58 67.30 67.12 67.32 67.03 67.16 66.87 66.52 65.09 64.46 63.62 62.75 61.92 61.28 60.42 59.36 58.44 57.73 56.90 57.21 56.86 55.80 55.22
43.33 39.82 43.59 40.37 39.98 38.61 40.56 50.33 56.85 59.79 60.06 60.78 60.93 61.74 61.97 62.54 62.65 63.03 63.61 63.94 64.65 65.29 64.95 65.66 66.04 66.12 66.17 65.60 65.41 65.25 65.74 65.40 64.29 62.74 62.35 62.13 61.60 60.85 59.74 59.04 58.32 57.93 56.70 56.21 55.63 55.19 53.85 53.54 52.91
44.39 45.87 38.55 37.95 33.66 32.78 36.92 43.88 47.95 55.44 56.87 58.97 59.32 59.83 61.14 62.35 62.47 62.95 63.37 64.20 64.53 64.62 65.43 65.95 65.30 64.12 64.39 63.68 63.24 63.12 63.43 63.66 62.15 59.23 58.00 57.66 57.55 57.39 57.19 56.33 55.51 55.08 55.08 54.46 53.25 52.98 53.54 53.06 52.63
42.17 40.20 39.25 39.43 38.80 36.15 36.58 44.40 53.60 56.16 57.63 57.89 59.33 60.79 61.64 62.33 63.00 63.42 63.09 62.93 62.63 62.83 63.30 64.63 64.25 62.61 61.62 62.69 63.52 62.48 61.99 61.17 60.12 59.90 60.96 60.46 59.56 58.70 56.70 56.59 56.70 55.81 55.05 54.97 55.05 54.38 51.55 49.27 48.24
45.63 42.35 41.65 38.19 35.68 38.26 39.31 42.77 55.68 57.60 57.86 59.63 59.94 60.74 62.36 63.59 63.53 63.60 62.52 62.24 61.99 61.54 63.02 64.12 61.97 61.24 60.92 62.76 61.82 61.17 61.34 60.17 58.92 58.71 58.65 58.36 57.46 57.03 57.25 57.13 57.09 57.34 56.84 55.29 53.64 52.09 50.52 48.84 47.96
MSLP
1009.74 1009.52 1009.42 1009.81 1010.43 1010.12 1008.92 1007.79 1006.35 1006.29 1006.62 1006.84 1006.76 1007.35 1008.50 1009.25 1010.25 1012.28 1012.37 1013.22 1013.87 1014.41 1014.81 1015.08 1015.29 1015.44 1015.68 1015.75 1015.91 1016.06 1016.04 1016.05 1016.26 1016.37 1016.54 1016.64 1016.70 1016.83 1016.90 1017.00 1017.02 1017.10 1017.13 1017.15 1017.13 1017.22 1017.24 1017.24 1017.31
1009.44 1009.70 1009.83 1009.91 1010.36 1010.41 1008.86 1007.12 1006.20 1006.28 1006.65 1006.83 1007.15 1007.67 1008.35 1010.07 1010.81 1012.24 1013.09 1013.80 1013.90 1014.18 1014.91 1015.09 1015.35 1015.61 1015.66 1015.81 1016.03 1016.12 1016.22 1016.25 1016.46 1016.53 1016.71 1016.87 1017.01 1017.02 1017.10 1017.14 1017.21 1017.30 1017.31 1017.33 1017.32 1017.32 1017.35 1017.29 1017.38
1009.17 1009.11 1009.96 1010.11 1010.74 1010.13 1008.57 1007.19 1006.29 1006.48 1006.22 1006.18 1007.33 1007.85 1008.86 1010.72 1011.58 1012.23 1012.94 1013.88 1014.32 1014.59 1014.86 1015.09 1015.39 1015.61 1015.71 1015.92 1016.24 1016.27 1016.41 1016.47 1016.65 1016.71 1016.85 1017.02 1017.20 1017.25 1017.22 1017.29 1017.38 1017.48 1017.49 1017.51 1017.50 1017.47 1017.37 1017.27 1017.36
1009.04 1009.60 1010.24 1010.25 1010.43 1009.27 1007.94 1006.91 1006.20 1006.49 1006.96 1006.96 1007.42 1008.53 1009.35 1009.84 1010.89 1011.90 1013.41 1013.91 1014.49 1014.71 1014.82 1015.06 1015.37 1015.62 1015.86 1016.16 1016.33 1016.42 1016.55 1016.73 1016.84 1016.93 1017.07 1017.15 1017.27 1017.41 1017.43 1017.48 1017.63 1017.69 1017.71 1017.66 1017.62 1017.51 1017.39 1017.25 1017.31
1009.25 1009.80 1010.51 1010.50 1009.89 1008.89 1007.29 1006.72 1006.02 1006.11 1006.49 1006.99 1007.14 1009.15 1010.09 1010.89 1011.10 1012.37 1013.49 1014.15 1014.22 1014.85 1015.08 1015.34 1015.58 1015.83 1016.06 1016.25 1016.45 1016.60 1016.76 1016.92 1017.04 1017.08 1017.15 1017.26 1017.35 1017.46 1017.50 1017.55 1017.65 1017.75 1017.79 1017.73 1017.61 1017.54 1017.42 1017.30 1017.22
1009.94 1010.50 1011.07 1010.56 1009.48 1007.92 1007.06 1006.00 1005.79 1006.20 1006.80 1007.50 1008.26 1009.10 1011.01 1011.47 1011.57 1012.83 1013.51 1014.23 1014.19 1014.86 1015.20 1015.39 1015.64 1015.83 1016.14 1016.28 1016.50 1016.69 1016.80 1016.95 1017.07 1017.18 1017.25 1017.32 1017.37 1017.45 1017.54 1017.58 1017.68 1017.76 1017.79 1017.79 1017.66 1017.49 1017.36 1017.34 1017.29
1010.08 1010.89 1010.98 1010.50 1009.36 1008.56 1006.88 1005.34 1005.49 1006.06 1006.82 1007.53 1008.00 1009.51 1011.40 1011.89 1011.90 1012.65 1013.42 1013.99 1014.43 1014.87 1015.21 1015.48 1015.72 1015.92 1016.25 1016.45 1016.66 1016.81 1016.84 1016.90 1017.01 1017.16 1017.29 1017.36 1017.41 1017.52 1017.60 1017.66 1017.71 1017.76 1017.78 1017.74 1017.56 1017.44 1017.48 1017.49 1017.38
1009.63 1010.51 1010.76 1009.82 1009.34 1008.34 1006.88 1006.06 1005.49 1005.56 1006.73 1007.48 1008.04 1009.17 1010.67 1011.15 1011.91 1012.75 1013.49 1014.22 1014.75 1015.11 1015.26 1015.56 1015.83 1016.00 1016.30 1016.50 1016.56 1016.69 1016.79 1016.89 1016.99 1017.14 1017.25 1017.35 1017.41 1017.50 1017.54 1017.62 1017.67 1017.70 1017.74 1017.68 1017.52 1017.38 1017.49 1017.46 1017.36
1008.85 1010.10 1010.35 1009.87 1009.21 1007.86 1006.19 1006.47 1005.92 1005.76 1006.68 1007.37 1007.82 1008.28 1009.50 1010.61 1011.84 1012.91 1013.98 1014.79 1015.14 1015.36 1015.25 1015.42 1015.79 1016.03 1016.27 1016.43 1016.46 1016.51 1016.63 1016.83 1016.96 1017.06 1017.13 1017.23 1017.48 1017.58 1017.66 1017.68 1017.66 1017.65 1017.61 1017.67 1017.59 1017.36 1017.37 1017.29 1017.18
1009.19 1009.80 1009.26 1007.98 1007.64 1007.00 1006.04 1006.51 1006.09 1006.42 1007.09 1007.90 1008.18 1008.97 1009.72 1010.55 1011.71 1012.61 1013.52 1014.31 1014.83 1015.02 1015.21 1015.17 1015.30 1015.66 1016.01 1016.01 1016.27 1016.45 1016.59 1016.71 1016.85 1016.96 1017.07 1017.20 1017.36 1017.47 1017.49 1017.59 1017.58 1017.52 1017.53 1017.51 1017.49 1017.34 1017.21 1017.08 1017.08
1008.90 1008.78 1007.48 1006.85 1006.24 1006.01 1005.63 1005.94 1006.03 1006.31 1007.69 1007.57 1008.17 1008.95 1009.74 1010.39 1011.50 1012.22 1012.84 1013.08 1013.51 1013.89 1014.46 1014.70 1014.92 1015.06 1015.47 1015.54 1016.08 1016.35 1016.45 1016.59 1016.66 1016.71 1016.84 1016.90 1017.08 1017.23 1017.29 1017.46 1017.45 1017.51 1017.50 1017.49 1017.43 1017.35 1017.23 1017.16 1017.01
1008.38 1008.00 1006.90 1005.71 1004.99 1005.23 1005.05 1005.41 1006.10 1006.07 1006.61 1007.37 1007.94 1008.40 1009.35 1010.26 1010.96 1011.63 1012.21 1012.68 1013.18 1013.52 1013.52 1013.96 1014.39 1014.75 1014.96 1015.33 1015.76 1015.89 1016.09 1016.36 1016.51 1016.39 1016.55 1016.84 1016.99 1017.09 1017.14 1017.20 1017.38 1017.31 1017.25 1017.26 1017.25 1017.35 1017.29 1017.23 1017.05
1007.83 1007.34 1007.19 1006.14 1005.35 1004.81 1004.10 1005.06 1005.64 1006.29 1006.64 1007.42 1008.07 1008.59 1009.06 1009.78 1010.20 1010.67 1011.01 1011.55 1012.22 1012.82 1013.07 1013.35 1013.92 1014.24 1014.44 1014.91 1015.32 1015.59 1015.81 1015.87 1015.97 1016.09 1016.06 1016.31 1016.64 1016.72 1016.76 1016.86 1017.12 1017.05 1016.91 1016.94 1016.96 1017.02 1016.98 1016.83 1016.59
1007.50 1007.14 1006.32 1005.74 1005.34 1004.48 1004.36 1005.33 1005.57 1006.96 1006.88 1007.31 1007.87 1008.47 1008.93 1009.19 1009.62 1010.08 1010.70 1011.27 1011.72 1012.01 1012.43 1012.66 1013.33 1013.64 1013.91 1014.27 1014.74 1015.06 1015.35 1015.35 1015.60 1015.71 1015.66 1015.73 1015.96 1016.12 1016.28 1016.51 1016.60 1016.67 1016.51 1016.32 1016.51 1016.44 1016.39 1016.29 1016.03
1007.71 1007.42 1006.44 1005.52 1005.10 1004.34 1004.49 1005.90 1006.10 1006.41 1006.90 1007.22 1007.73 1008.16 1008.67 1008.93 1009.19 1009.51 1009.83 1010.35 1010.92 1011.34 1011.66 1012.27 1012.77 1013.21 1013.70 1013.89 1014.18 1014.57 1014.76 1014.97 1015.21 1015.18 1015.14 1015.27 1015.36 1015.55 1015.62 1015.84 1016.17 1016.00 1015.92 1016.05 1016.13 1015.92 1015.86 1016.07 1015.87
1008.31 1008.19 1007.80 1005.74 1005.33 1004.47 1004.47 1005.85 1006.06 1006.05 1006.47 1007.01 1007.40 1007.72 1008.20 1008.50 1008.71 1008.95 1009.23 1009.61 1010.26 1010.84 1011.45 1011.87 1012.35 1012.84 1013.25 1013.66 1013.79 1014.22 1014.36 1014.55 1014.75 1014.93 1014.75 1014.79 1014.89 1014.95 1015.15 1015.35 1015.30 1015.00 1015.08 1015.27 1015.57 1015.80 1015.87 1015.81 1015.35
1009.41 1008.89 1008.26 1006.82 1005.25 1005.10 1005.12 1005.42 1005.52 1005.79 1006.03 1006.47 1006.71 1007.13 1007.61 1008.21 1008.53 1008.67 1008.85 1009.33 1009.94 1010.42 1011.14 1011.74 1011.99 1012.47 1012.93 1013.40 1013.57 1013.67 1013.83 1014.24 1014.43 1014.40 1014.56 1014.60 1014.65 1014.61 1014.77 1014.80 1014.68 1014.69 1014.86 1015.10 1015.32 1015.38 1015.60 1015.54 1015.41
1009.84 1009.21 1008.23 1007.31 1005.62 1005.30 1005.42 1005.28 1005.17 1005.40 1005.60 1005.81 1006.14 1006.73 1007.20 1007.68 1007.97 1008.28 1008.67 1009.22 1009.80 1010.39 1010.87 1011.39 1011.92 1012.32 1012.81 1013.31 1013.79 1014.08 1014.16 1014.23 1014.26 1014.33 1014.38 1014.36 1014.31 1014.27 1014.58 1014.58 1014.44 1014.44 1014.79 1014.87 1014.93 1015.13 1015.22 1015.43 1015.39
1009.42 1009.14 1008.59 1007.12 1005.93 1006.09 1005.52 1005.29 1004.87 1005.12 1005.46 1005.67 1006.10 1006.49 1006.95 1007.18 1007.43 1008.07 1008.55 1009.10 1009.93 1010.71 1011.33 1011.73 1012.22 1012.59 1013.10 1013.76 1014.25 1014.59 1014.55 1014.42 1014.34 1014.09 1013.93 1013.90 1013.90 1013.90 1014.04 1014.11 1014.30 1014.30 1014.68 1014.61 1014.66 1014.84 1015.14 1015.35 1015.33
1009.27 1009.03 1008.00 1006.97 1006.06 1006.42 1005.27 1005.23 1004.71 1004.81 1004.83 1004.81 1005.54 1006.32 1006.57 1007.36 1007.74 1008.18 1008.56 1009.24 1009.93 1010.54 1011.12 1011.71 1012.07 1012.50 1012.87 1013.20 1013.66 1013.95 1014.25 1014.22 1014.04 1013.85 1013.67 1013.42 1013.27 1013.31 1013.52 1013.80 1013.89 1014.06 1014.25 1014.38 1014.56 1014.94 1015.19 1015.20 1015.21
1008.77 1008.66 1007.74 1007.39 1006.03 1005.65 1005.24 1005.10 1004.82 1004.75 1004.84 1005.33 1005.65 1005.82 1006.54 1006.90 1007.68 1008.37 1008.91 1009.29 1009.88 1010.30 1010.61 1010.99 1011.35 1011.78 1012.19 1012.64 1013.32 1013.91 1014.18 1014.29 1014.21 1013.94 1013.73 1013.52 1013.13 1012.80 1012.95 1013.05 1013.46 1013.70 1014.17 1014.24 1014.43 1014.61 1014.81 1015.10 1015.15
1008.09 1007.31 1007.10 1007.04 1007.05 1006.36 1005.89 1005.89 1005.18 1004.95 1005.10 1005.74 1006.08 1006.22 1006.56 1007.08 1007.87 1008.80 1009.49 1009.89 1010.06 1010.04 1010.39 1010.70 1011.30 1011.95 1012.43 1012.87 1013.33 1013.78 1014.08 1014.37 1014.22 1014.11 1014.03 1013.96 1013.39 1012.78 1012.46 1012.74 1012.93 1013.42 1013.77 1014.28 1014.45 1014.93 1014.95 1015.04 1015.24
1007.08 1006.52 1006.76 1006.74 1007.00 1006.82 1006.22 1006.76 1005.42 1005.51 1006.01 1006.70 1006.83 1007.04 1007.22 1008.00 1008.64 1009.73 1010.26 1010.33 1010.29 1010.29 1011.02 1011.49 1011.79 1012.15 1012.57 1013.01 1013.20 1013.67 1014.05 1014.37 1014.15 1014.30 1014.41 1014.35 1013.94 1013.73 1013.30 1013.33 1013.80 1013.99 1014.39 1014.65 1014.80 1014.92 1014.89 1015.21 1015.30
1006.09 1006.44 1006.62 1007.02 1007.34 1007.54 1006.67 1007.11 1006.26 1006.25 1006.16 1007.31 1007.62 1008.11 1008.53 1009.28 1009.88 1010.60 1011.24 1011.27 1011.36 1011.52 1011.74 1012.00 1012.27 1012.74 1012.77 1012.88 1012.97 1013.53 1013.98 1014.32 1014.44 1014.85 1015.07 1015.02 1014.84 1014.77 1014.61 1014.39 1014.56 1014.67 1015.13 1015.18 1015.47 1015.73 1015.68 1016.13 1016.14
1006.27 1006.90 1007.41 1007.56 1007.87 1007.95 1006.82 1007.04 1005.94 1005.45 1005.91 1006.42 1007.89 1009.26 1009.95 1010.49 1011.04 1011.60 1011.98 1011.87 1012.31 1012.56 1012.77 1013.06 1013.12 1013.72 1013.74 1013.64 1013.54 1013.74 1014.28 1014.75 1015.03 1015.36 1015.53 1015.58 1015.66 1015.59 1015.59 1015.40 1015.34 1015.72 1016.06 1016.14 1016.23 1016.31 1016.68 1016.93 1017.10
1006.22 1006.62 1007.40 1007.62 1007.85 1007.86 1007.16 1006.88 1006.03 1005.47 1006.01 1007.86 1009.01 1010.11 1010.92 1011.48 1012.06 1012.42 1012.91 1013.07 1013.26 1013.50 1013.86 1014.09 1013.84 1014.55 1014.53 1014.71 1014.86 1014.84 1015.10 1015.19 1015.49 1015.86 1016.17 1016.39 1016.44 1016.61 1016.61 1016.47 1016.37 1016.33 1016.32 1016.62 1016.81 1017.24 1017.51 1017.62 1017.85
1005.43 1005.91 1006.11 1007.20 1007.94 1008.02 1007.45 1007.22 1007.43 1007.47 1008.25 1009.20 1010.30 1011.37 1012.62 1013.03 1013.17 1013.27 1013.31 1013.51 1013.90 1014.16 1014.59 1014.86 1014.80 1014.90 1015.28 1015.25 1015.35 1015.64 1015.75 1015.97 1016.38 1016.67 1016.87 1017.20 1017.11 1017.13 1017.26 1017.07 1017.22 1017.30 1017.29 1017.34 1017.64 1017.98 1018.17 1018.29 1018.55
1005.13 1004.78 1006.15 1007.05 1007.91 1008.46 1008.29 1008.00 1008.82 1009.58 1010.21 1010.56 1011.29 1012.25 1013.72 1014.75 1015.08 1014.46 1014.74 1014.35 1014.41 1014.81 1014.96 1015.10 1015.45 1015.52 1015.53 1015.91 1016.24 1016.43 1016.58 1016.65 1016.93 1017.03 1017.36 1017.84 1017.80 1017.69 1018.03 1018.01 1018.03 1018.04 1018.08 1018.14 1018.44 1018.71 1018.84 1018.90 1019.08
1004.96 1004.77 1005.57 1006.45 1007.54 1008.37 1008.92 1009.44 1009.74 1009.94 1010.60 1010.93 1011.61 1012.03 1011.79 1013.36 1014.65 1016.71 1014.49 1016.11 1014.64 1014.93 1015.21 1015.89 1016.11 1016.20 1016.49 1016.54 1016.73 1017.12 1017.58 1017.65 1017.71 1017.97 1017.99 1018.38 1018.47 1018.37 1018.53 1018.54 1018.72 1018.65 1018.73 1018.87 1019.00 1019.25 1019.42 1019.59 1019.79
1004.48 1004.87 1004.29 1006.02 1007.33 1007.98 1008.83 1010.10 1010.54 1011.29 1011.08 1010.67 1011.44 1010.94 1010.80 1012.12 1013.83 1015.04 1015.41 1016.46 1015.29 1015.67 1015.96 1016.69 1016.90 1016.94 1017.05 1017.13 1017.36 1017.66 1017.91 1018.14 1018.39 1018.62 1018.67 1019.03 1019.26 1019.09 1019.45 1019.09 1019.24 1019.23 1019.21 1019.46 1019.70 1019.96 1020.06 1020.28 1020.52
Wind_Speed
5 5 0 3 5 4 4 2 5 7 6 5 11 10 8 5 2 4 3 13 18 14 12 14 17 17 17 16 15 14 13 13 12 11 9 8 9 9 9 9 10 9 8 8 7 6 5 4 6
3 5 2 2 6 4 5 2 5 12 14 17 15 9 8 3 7 12 8 13 15 15 9 11 17 17 17 16 14 13 13 12 10 10 10 9 8 8 8 9 10 8 7 6 6 5 3 2 3
2 2 4 3 4 2 2 5 4 18 16 7 5 6 6 5 12 7 14 16 13 11 11 12 17 16 17 16 14 13 12 12 11 10 10 9 7 7 7 8 10 8 7 6 5 3 2 2 3
2 4 4 5 3 5 3 6 13 16 15 12 14 8 6 5 7 10 17 16 13 10 8 15 16 16 15 15 14 12 12 11 11 10 9 9 8 6 5 9 8 8 6 6 4 2 2 3 2
4 3 5 2 4 5 5 3 10 6 5 10 13 5 4 5 21 21 18 14 16 9 7 10 15 15 14 14 13 11 11 10 10 10 9 9 8 7 6 9 9 8 6 5 4 2 1 2 3
4 4 5 5 6 6 5 11 11 6 9 10 11 9 5 18 23 17 16 13 13 13 7 7 15 15 13 14 13 12 11 10 10 9 9 9 9 8 7 7 7 7 6 4 3 4 4 4 6
5 5 4 4 5 6 4 5 10 13 10 5 11 7 9 13 17 18 16 14 13 12 9 6 7 11 14 13 12 11 10 10 9 8 8 8 8 8 8 7 7 6 5 4 5 6 5 6 6
5 5 4 2 1 7 4 4 8 14 5 15 15 7 16 13 17 15 14 12 12 11 9 7 6 6 6 7 13 11 11 11 9 9 8 8 8 8 8 8 8 8 7 6 7 7 5 6 7
1 5 3 5 1 7 4 2 4 7 15 1 4 7 17 18 18 17 13 9 9 8 10 8 7 7 7 6 9 12 13 12 11 9 10 6 3 4 6 7 8 9 9 8 8 9 8 8 9
5 3 10 9 9 7 4 3 5 7 8 6 10 15 14 17 19 19 15 13 11 12 11 12 12 11 9 8 6 6 6 5 5 5 6 4 5 4 5 7 10 10 9 9 9 10 11 9 4
4 6 7 8 12 12 5 4 6 16 3 14 21 20 16 12 16 19 17 19 19 16 11 13 12 12 12 8 5 3 3 3 4 7 6 6 4 4 4 3 3 3 7 3 5 5 4 5 5
2 9 11 11 4 3 1 10 10 3 8 17 20 19 16 14 13 18 17 16 13 15 16 14 13 12 13 5 6 6 5 4 4 5 7 5 3 4 4 4 4 4 4 5 5 3 4 6 6
5 6 7 14 14 9 4 7 9 7 17 18 18 16 17 14 12 15 19 17 16 15 14 15 12 11 12 10 6 5 6 6 6 5 6 5 5 6 4 5 4 5 4 5 5 5 5 6 7
5 7 10 2 9 6 2 9 7 7 18 19 19 17 16 15 14 10 10 15 16 16 16 15 12 13 13 10 8 7 5 6 5 5 6 7 5 5 6 5 6 5 5 5 5 6 6 8 6
4 8 10 7 3 7 7 5 14 18 19 20 19 17 15 14 10 14 13 14 17 17 18 15 14 10 11 10 7 6 6 6 5 7 8 7 7 6 6 5 5 6 5 6 6 7 5 4 5
5 4 5 9 5 7 6 6 11 21 21 19 19 17 14 13 11 10 11 15 10 12 17 12 13 12 10 7 7 5 5 4 5 4 4 8 8 8 6 5 5 5 3 2 2 3 5 6 3
6 3 4 11 4 3 5 2 20 18 19 19 19 18 15 14 8 9 11 13 13 13 13 9 8 10 9 7 4 4 4 3 2 1 3 6 6 6 6 5 5 5 4 3 2 2 2 3 3
6 3 4 6 9 2 1 7 20 17 18 20 17 16 15 16 14 10 10 8 12 10 10 10 7 8 7 4 3 2 1 2 2 3 4 5 5 7 6 5 6 5 4 4 3 4 2 4 3
5 4 7 7 9 2 7 10 18 19 17 15 14 14 15 17 12 9 10 9 9 6 8 8 9 6 4 2 3 1 2 2 3 4 7 7 6 6 7 6 5 4 5 6 5 2 2 2 1
7 8 15 14 13 8 7 14 15 11 16 20 18 15 16 8 9 9 9 9 10 10 9 8 8 8 6 4 3 3 3 4 4 2 6 7 7 7 6 7 7 6 5 6 5 1 1 1 2
8 8 15 12 9 4 7 4 8 4 6 12 11 16 12 16 15 10 8 10 8 12 12 12 11 11 8 7 3 2 2 2 2 3 4 5 6 9 7 7 6 6 3 4 2 2 4 2 1
8 8 13 11 3 8 4 6 2 6 10 11 7 8 10 9 7 6 5 5 3 8 6 5 1 2 3 6 4 5 4 4 2 2 3 4 9 8 3 4 4 3 3 4 3 2 0 2 2
13 12 11 12 6 0 5 4 7 5 6 7 7 7 7 12 15 13 11 12 10 7 7 7 8 6 5 6 4 4 4 1 0 3 6 7 8 11 11 11 9 8 6 6 6 4 5 2 2
10 6 5 4 4 1 7 7 7 5 9 7 6 12 17 17 17 16 12 12 13 12 12 11 13 10 10 9 5 3 5 5 5 6 5 5 6 7 10 10 8 8 7 6 5 5 8 5 5
3 5 5 5 2 6 6 4 9 6 7 15 18 15 13 14 14 14 12 12 12 12 11 11 13 11 9 10 10 11 9 8 8 6 5 6 5 5 7 8 8 7 7 7 7 9 8 7 5
8 10 7 7 3 3 2 6 7 8 14 18 18 16 14 14 11 12 11 10 11 11 11 10 11 10 10 11 10 9 8 6 7 7 6 5 6 6 7 8 9 9 9 8 8 7 6 6 5
11 6 9 6 3 1 3 2 9 12 17 19 18 18 14 10 7 8 9 10 10 9 7 8 10 10 10 10 9 10 10 10 9 9 8 5 6 7 7 9 10 9 9 8 7 6 7 7 5
10 5 3 3 8 5 5 2 6 11 13 15 16 17 12 9 7 8 9 9 9 8 8 11 11 11 11 11 9 8 9 9 8 9 10 9 9 9 9 9 8 8 8 8 7 5 6 8 5
6 3 3 6 6 6 3 4 3 13 14 18 15 14 17 14 7 5 11 3 9 8 10 9 9 10 9 9 10 10 8 7 7 6 8 7 7 7 6 6 6 6 7 6 7 7 7 9 8
7 8 10 7 7 3 6 6 3 10 15 19 18 18 17 17 10 9 9 5 9 7 9 9 9 9 8 9 9 9 9 8 8 7 7 7 6 7 6 7 7 6 7 7 7 8 7 9 10
Wind_Direction
158 190 199 63 58 55 308 255 154 103 66 61 85 97 117 30 134 177 84 131 131 133 139 137 133 132 129 121 118 116 113 111 112 111 110 109 104 110 112 110 112 111 110 107 104 99 99 102 95
196 159 358 359 69 34 304 261 103 93 116 99 89 82 50 90 60 116 98 132 133 135 138 133 135 132 125 120 121 119 113 111 110 116 114 120 118 130 127 121 107 115 115 111 107 99 76 12 53
219 154 96 104 122 182 281 277 126 130 139 114 96 84 71 102 120 129 123 135 130 128 131 141 137 133 128 124 125 121 121 119 119 113 120 119 123 99 122 130 130 128 122 121 112 89 28 2 70
39 16 12 85 266 264 204 239 112 108 104 95 119 69 66 148 127 136 137 132 131 131 134 141 139 133 132 129 129 127 126 123 123 122 125 127 126 113 81 131 120 121 121 125 122 106 33 347 18
25 53 30 355 268 262 306 207 131 126 76 114 121 116 63 38 112 129 136 137 133 132 130 136 135 132 135 135 135 136 133 132 131 130 133 130 131 136 110 120 130 135 136 144 155 190 239 282 312
31 94 19 336 319 302 290 187 135 97 128 114 89 95 72 133 127 140 138 138 131 135 133 146 143 140 144 145 148 147 141 141 140 142 142 142 147 150 148 140 146 150 148 159 200 245 264 297 324
107 73 236 241 295 325 285 160 137 139 141 110 127 103 130 146 143 142 137 135 136 140 136 135 140 147 152 152 154 155 151 153 154 156 158 159 158 161 164 162 164 168 174 192 219 243 274 304 313
121 105 276 302 224 265 282 312 138 139 135 128 143 155 164 167 144 130 130 127 138 145 145 146 151 146 153 164 164 166 165 164 165 166 170 175 176 179 181 182 185 186 195 214 245 261 269 276 289
102 67 265 258 348 259 289 12 352 87 124 199 175 117 145 153 127 126 124 126 137 159 160 159 159 162 168 175 180 177 177 174 181 184 187 190 177 200 213 203 209 206 209 215 236 263 271 267 267
103 147 215 209 199 227 255 126 167 103 109 71 87 122 142 146 140 144 153 159 166 168 181 174 172 175 175 182 184 182 187 181 185 190 199 188 194 201 208 223 224 224 224 224 232 248 263 279 272
164 208 258 240 221 236 240 131 152 118 96 152 145 153 159 162 150 159 168 168 181 180 175 184 183 177 180 185 176 183 190 193 199 195 195 195 195 211 220 222 218 216 248 249 251 263 261 267 280
306 194 260 277 255 204 250 128 152 152 170 157 153 156 161 172 165 169 175 179 170 180 180 188 183 183 184 167 179 187 188 196 207 210 191 184 206 205 210 215 217 210 218 236 235 246 266 270 276
206 283 204 257 285 256 83 153 148 128 139 147 152 160 171 178 184 178 180 181 174 179 182 193 178 181 187 171 179 175 204 192 207 213 206 183 198 204 187 208 205 221 211 227 234 231 240 250 240
288 301 287 258 239 247 105 120 107 164 150 150 159 171 183 186 187 186 165 172 177 181 184 189 179 181 182 178 171 189 187 205 193 213 218 205 192 194 186 203 213 227 213 224 227 224 225 242 253
282 333 328 308 302 238 103 108 152 158 161 160 168 176 185 197 182 185 184 178 169 183 181 186 174 169 178 178 171 185 200 200 189 211 218 208 199 200 190 186 196 217 215 227 238 238 230 237 233
7 47 351 290 352 277 126 185 165 167 164 169 174 179 185 200 194 185 178 177 173 160 177 174 171 173 170 178 162 166 168 170 188 208 214 213 206 201 206 207 216 233 259 241 220 222 231 230 247
357 231 245 311 200 274 114 164 177 179 170 175 179 181 183 195 207 193 184 176 172 169 169 174 170 170 173 167 166 177 181 171 191 211 213 229 224 224 202 208 222 223 235 247 241 276 221 289 291
232 272 280 242 283 15 227 223 172 188 176 181 180 180 181 186 201 191 183 167 173 169 167 168 169 169 166 132 110 72 62 271 255 247 237 232 228 220 212 234 227 217 231 254 238 226 203 220 239
254 260 266 273 279 295 228 198 190 182 188 177 176 180 186 192 192 176 179 155 152 146 149 160 154 177 138 115 110 64 229 259 280 260 261 256 236 228 211 224 230 220 215 232 244 241 255 298 127
242 257 269 284 263 178 244 218 217 176 188 178 177 188 187 169 171 181 167 149 161 168 177 167 173 169 181 163 164 161 171 224 232 252 270 254 251 228 218 217 219 216 224 242 261 217 266 229 179
252 226 261 240 303 260 256 268 159 183 145 176 186 189 181 181 176 179 172 167 157 173 181 186 187 183 185 178 114 68 35 357 324 280 280 321 284 258 219 215 202 223 217 227 229 221 186 225 249
255 215 253 268 249 259 96 239 305 189 149 169 147 174 178 171 126 86 89 86 182 196 189 193 169 129 132 149 152 161 181 211 283 23 72 26 24 15 297 205 172 149 111 82 74 63 340 132 232
246 265 242 256 213 177 304 57 237 157 144 139 148 110 85 103 93 81 74 84 60 99 105 93 84 94 112 168 182 175 188 214 186 69 58 35 37 28 44 57 43 61 58 55 53 77 70 33 99
251 304 274 50 121 39 252 153 271 200 172 153 134 103 100 98 94 83 72 76 67 68 73 81 83 69 67 74 77 102 98 83 82 70 64 46 46 38 36 49 52 56 54 53 63 62 58 51 61
227 77 297 302 1 205 258 136 233 195 160 153 128 109 98 89 85 89 84 78 73 66 71 75 77 72 72 73 73 75 79 80 78 75 77 66 50 42 32 42 52 59 57 60 63 60 59 51 59
226 175 190 197 240 233 236 235 260 308 129 103 100 100 93 87 88 89 84 78 74 71 71 78 78 70 58 61 62 59 61 75 77 68 69 61 60 51 54 63 68 71 70 64 64 66 64 58 54
270 206 198 155 207 72 227 210 44 80 94 98 101 93 78 73 84 100 94 89 85 78 72 91 88 80 76 69 66 62 66 66 75 72 72 68 83 81 69 73 74 63 63 61 56 59 56 57 42
199 196 188 348 173 217 276 229 161 118 108 100 96 94 89 67 46 71 60 84 85 82 76 69 71 73 74 71 66 67 70 78 81 91 87 82 81 79 72 69 68 64 61 62 65 58 49 60 35
302 238 77 120 147 186 172 240 355 149 135 117 117 117 111 106 98 287 82 45 88 82 78 76 78 79 74 79 81 76 72 68 76 75 80 83 84 80 79 78 78 83 82 72 74 68 60 63 48
205 257 161 149 226 240 158 238 358 157 134 130 135 128 137 144 141 160 130 151 97 84 100 91 82 87 80 80 80 82 85 81 80 68 62 61 55 47 47 51 54 50 69 71 70 69 65 66 57